Inquirer Daily News

Weather

Get conditions and forecasts for any City, State, ZIP code or Country:  
Trenton, NJ
on Monday, February 25, 2013

Monday
Previous Day Next Day
Daily Summary
 ActualAverageRecord
Temperature
Mean Temperature °F 36°F  
Max Temperature 44°F 45°F 76°F (1930)
Min Temperature 29°F 27°F 1°F (1894)
Degree Days
Heating Degree Days 28 29  
Month to date heating degree days 820 782  
Since 1 July heating degree days 3528 3728  
Cooling Degree Days 0 0  
Month to date cooling degree days 0 0  
Year to date cooling degree days 0 0  
Moisture
Dew Point 23°F   
Average Humidity 57    
Maximum Humidity 69    
Minimum Humidity 45    
Precipitation
Precipitation 0.00 in 0.09 in 1.08 in (2011)
Month to date precipitation 1.29 2.02  
Year to date precipitation 4.11 5.18  
Wind
Wind Speed 5 mph   
Max Wind Speed 16 mph   
Max Gust Speed 20 mph   
Visibility 10 miles   
Events     

Key: T is trace of precipitation, MM is missing value
Source: NWS Daily Summary
Time(EST)TemperatureDew PointHumidity Pressure Visibility Wind DirectionWind SpeedGust SpeedPrecipitationEvents Conditions
12:53 AM 32.0°F 19.0°F 59% 30.01 in 10.0 miles NNW 3.5 mph - N/A   Clear
1:53 AM 30.9°F 19.9°F 64% 30.03 in 10.0 miles NNW 4.6 mph - N/A   Clear
2:53 AM 32.0°F 19.9°F 61% 30.03 in 10.0 miles NNW 6.9 mph - N/A   Clear
3:53 AM 30.9°F 19.9°F 64% 30.04 in 10.0 miles NNW 6.9 mph - N/A   Clear
4:53 AM 30.0°F 19.9°F 66% 30.06 in 10.0 miles NNW 3.5 mph - N/A   Clear
5:53 AM 30.0°F 21.0°F 69% 30.07 in 10.0 miles NW 4.6 mph - N/A   Clear
6:53 AM 30.0°F 21.0°F 69% 30.09 in 10.0 miles NW 6.9 mph - N/A   Clear
7:53 AM 32.0°F 21.9°F 66% 30.12 in 10.0 miles NW 6.9 mph - N/A   Clear
8:53 AM 37.0°F 24.1°F 59% 30.12 in 10.0 miles NNW 6.9 mph - N/A   Clear
9:53 AM 39.0°F 25.0°F 57% 30.13 in 10.0 miles NNE 8.1 mph - N/A   Clear
10:53 AM 39.9°F 26.1°F 58% 30.14 in 10.0 miles NE 8.1 mph - N/A   Scattered Clouds
11:53 AM 41.0°F 26.1°F 55% 30.15 in 10.0 miles North 9.2 mph - N/A   Overcast
1:53 PM 43.0°F 25.0°F 49% 30.13 in 10.0 miles NNE 5.8 mph - N/A   Overcast
2:53 PM 43.0°F 25.0°F 49% 30.14 in 10.0 miles NNE 6.9 mph - N/A   Overcast
3:53 PM 43.0°F 24.1°F 47% 30.15 in 10.0 miles North 6.9 mph - N/A   Overcast
4:53 PM 44.1°F 25.0°F 47% 30.14 in 10.0 miles Calm Calm - N/A   Overcast
5:53 PM 41.0°F 25.0°F 53% 30.18 in 10.0 miles NNE 5.8 mph - N/A   Overcast
6:53 PM 37.0°F 25.0°F 62% 30.20 in 10.0 miles Calm Calm - N/A   Clear
7:53 PM 36.0°F 25.0°F 64% 30.21 in 10.0 miles Calm Calm - N/A   Scattered Clouds
8:53 PM 34.0°F 24.1°F 67% 30.22 in 10.0 miles North 3.5 mph - N/A   Clear
9:53 PM 33.1°F 24.1°F 70% 30.22 in 10.0 miles North 5.8 mph - N/A   Clear
10:53 PM 33.1°F 25.0°F 72% 30.21 in 10.0 miles North 3.5 mph - N/A   Overcast
11:53 PM 32.0°F 24.1°F 73% 30.20 in 10.0 miles Calm Calm - N/A   Overcast
Astronomy
Sunrise:06:38 AM (EST) Moon Rise:05:57 PM (EST)2/25
Sunset:05:46 PM (EST) Moon Set:06:07 AM (EST)2/25
Moon Phase
Feb. 25 Feb. 25 Mar. 04 Mar. 11 Mar. 19

Copyright © 2014 The Weather Underground, Inc.